Time,TemperatureF,DewpointF,PressureIn,WindDirection,WindDirectionDegrees,WindSpeedMPH,WindSpeedGustMPH,Humidity,HourlyPrecipIn,Conditions,Clouds,dailyrainin,SoftwareType,DateUTC
2013-02-15 00:00:00,38.5,21.5,30.25,East,98,3.0,6.0,50,0.00,,---,0.00,VWS V14.01,2013-02-15 07:00:00,
2013-02-15 00:05:00,38.3,20.4,30.24,SSE,164,4.0,4.0,48,0.00,,---,0.00,VWS V14.01,2013-02-15 07:05:00,
2013-02-15 00:10:00,37.9,19.0,30.25,SE,130,5.0,5.0,46,0.00,,---,0.00,VWS V14.01,2013-02-15 07:10:00,
2013-02-15 00:15:00,37.4,19.0,30.26,ESE,103,3.0,5.0,47,0.00,,---,0.00,VWS V14.01,2013-02-15 07:15:00,
2013-02-15 00:20:00,36.7,18.9,30.26,East,85,1.0,2.0,48,0.00,,---,0.00,VWS V14.01,2013-02-15 07:20:00,
2013-02-15 00:25:00,36.2,18.9,30.26,ESE,105,3.0,3.0,49,0.00,,---,0.00,VWS V14.01,2013-02-15 07:25:00,
2013-02-15 00:30:00,36.0,18.7,30.26,East,84,0.0,3.0,49,0.00,,---,0.00,VWS V14.01,2013-02-15 07:30:00,
2013-02-15 00:35:00,35.9,18.6,30.26,North,5,1.0,3.0,49,0.00,,---,0.00,VWS V14.01,2013-02-15 07:35:00,
2013-02-15 00:40:00,35.9,18.6,30.27,North,355,0.0,1.0,49,0.00,,---,0.00,VWS V14.01,2013-02-15 07:40:00,
2013-02-15 00:45:00,36.0,18.2,30.27,NNE,24,0.0,1.0,48,0.00,,---,0.00,VWS V14.01,2013-02-15 07:45:00,
2013-02-15 00:50:00,35.6,18.3,30.28,East,101,1.0,2.0,49,0.00,,---,0.00,VWS V14.01,2013-02-15 07:50:00,
2013-02-15 00:55:00,35.8,18.5,30.28,SE,133,0.0,2.0,49,0.00,,---,0.00,VWS V14.01,2013-02-15 07:55:00,
2013-02-15 01:00:00,36.0,18.7,30.28,NW,311,1.0,1.0,49,0.00,,---,0.00,VWS V14.01,2013-02-15 08:00:00,
2013-02-15 01:05:00,35.7,18.4,30.28,NNW,331,2.0,4.0,49,0.00,,---,0.00,VWS V14.01,2013-02-15 08:05:00,
2013-02-15 01:10:00,35.3,18.1,30.28,NNW,333,0.0,2.0,49,0.00,,---,0.00,VWS V14.01,2013-02-15 08:10:00,
2013-02-15 01:15:00,35.1,18.4,30.28,NNW,336,2.0,2.0,50,0.00,,---,0.00,VWS V14.01,2013-02-15 08:15:00,
2013-02-15 01:20:00,34.9,18.2,30.29,NNW,338,0.0,1.0,50,0.00,,---,0.00,VWS V14.01,2013-02-15 08:20:00,
2013-02-15 01:25:00,34.2,18.0,30.29,East,92,1.0,2.0,51,0.00,,---,0.00,VWS V14.01,2013-02-15 08:25:00,
2013-02-15 01:30:00,34.0,18.2,30.30,SE,129,1.0,3.0,52,0.00,,---,0.00,VWS V14.01,2013-02-15 08:30:00,
2013-02-15 01:35:00,34.0,18.7,30.30,ESE,123,4.0,7.0,53,0.00,,---,0.00,VWS V14.01,2013-02-15 08:35:00,
2013-02-15 01:40:00,34.6,22.2,30.30,ESE,102,3.0,7.0,60,0.00,,---,0.00,VWS V14.01,2013-02-15 08:40:00,
2013-02-15 01:45:00,35.1,22.2,30.30,ESE,113,1.0,2.0,59,0.00,,---,0.00,VWS V14.01,2013-02-15 08:45:00,
2013-02-15 01:50:00,35.1,22.6,30.30,ESE,117,1.0,3.0,60,0.00,,---,0.00,VWS V14.01,2013-02-15 08:50:00,
2013-02-15 01:55:00,34.9,22.4,30.30,NE,44,2.0,5.0,60,0.00,,---,0.00,VWS V14.01,2013-02-15 08:55:00,
2013-02-15 02:00:00,34.9,22.8,30.30,SE,127,3.0,3.0,61,0.00,,---,0.00,VWS V14.01,2013-02-15 09:00:00,
2013-02-15 02:05:00,34.8,22.7,30.30,ESE,117,4.0,4.0,61,0.00,,---,0.00,VWS V14.01,2013-02-15 09:05:00,
2013-02-15 02:10:00,34.6,22.9,30.30,ESE,121,5.0,5.0,62,0.00,,---,0.00,VWS V14.01,2013-02-15 09:10:00,
2013-02-15 02:15:00,34.6,23.3,30.30,ESE,115,4.0,6.0,63,0.00,,---,0.00,VWS V14.01,2013-02-15 09:15:00,
2013-02-15 02:20:00,34.5,23.2,30.30,ESE,121,3.0,4.0,63,0.00,,---,0.00,VWS V14.01,2013-02-15 09:20:00,
2013-02-15 02:25:00,34.5,23.2,30.30,ESE,119,3.0,3.0,63,0.00,,---,0.00,VWS V14.01,2013-02-15 09:25:00,
2013-02-15 02:30:00,34.4,23.1,30.30,ESE,111,4.0,5.0,63,0.00,,---,0.00,VWS V14.01,2013-02-15 09:30:00,
2013-02-15 02:35:00,34.4,23.5,30.30,East,101,6.0,6.0,64,0.00,,---,0.00,VWS V14.01,2013-02-15 09:35:00,
2013-02-15 02:40:00,34.4,23.1,30.30,ESE,112,3.0,5.0,63,0.00,,---,0.00,VWS V14.01,2013-02-15 09:40:00,
2013-02-15 02:45:00,34.4,23.5,30.30,SE,126,5.0,7.0,64,0.00,,---,0.00,VWS V14.01,2013-02-15 09:45:00,
2013-02-15 02:50:00,34.3,23.4,30.30,ESE,108,7.0,7.0,64,0.00,,---,0.00,VWS V14.01,2013-02-15 09:50:00,
2013-02-15 02:55:00,34.3,23.4,30.29,East,98,5.0,6.0,64,0.00,,---,0.00,VWS V14.01,2013-02-15 09:55:00,
2013-02-15 03:00:00,34.2,23.3,30.29,SE,140,3.0,6.0,64,0.00,,---,0.00,VWS V14.01,2013-02-15 10:00:00,
2013-02-15 03:05:00,34.2,23.3,30.29,ESE,123,3.0,7.0,64,0.00,,---,0.00,VWS V14.01,2013-02-15 10:05:00,
2013-02-15 03:10:00,34.1,23.2,30.29,ESE,111,2.0,3.0,64,0.00,,---,0.00,VWS V14.01,2013-02-15 10:10:00,
2013-02-15 03:15:00,33.9,23.0,30.29,East,91,0.0,2.0,64,0.00,,---,0.00,VWS V14.01,2013-02-15 10:15:00,
2013-02-15 03:20:00,33.6,23.1,30.29,East,98,1.0,3.0,65,0.00,,---,0.00,VWS V14.01,2013-02-15 10:20:00,
2013-02-15 03:25:00,33.4,22.9,30.29,East,89,1.0,2.0,65,0.00,,---,0.00,VWS V14.01,2013-02-15 10:25:00,
2013-02-15 03:30:00,33.3,22.8,30.29,East,88,1.0,1.0,65,0.00,,---,0.00,VWS V14.01,2013-02-15 10:30:00,
2013-02-15 03:35:00,33.2,22.7,30.29,SE,131,1.0,2.0,65,0.00,,---,0.00,VWS V14.01,2013-02-15 10:35:00,
2013-02-15 03:40:00,33.1,22.6,30.29,ESE,107,0.0,2.0,65,0.00,,---,0.00,VWS V14.01,2013-02-15 10:40:00,
2013-02-15 03:45:00,32.9,22.8,30.30,ESE,117,0.0,2.0,66,0.00,,---,0.00,VWS V14.01,2013-02-15 10:45:00,
2013-02-15 03:50:00,32.6,22.5,30.30,ESE,117,0.0,0.0,66,0.00,,---,0.00,VWS V14.01,2013-02-15 10:50:00,
2013-02-15 03:55:00,32.1,22.0,30.30,ESE,117,0.0,0.0,66,0.00,,---,0.00,VWS V14.01,2013-02-15 10:55:00,
2013-02-15 04:00:00,31.4,21.7,30.30,East,94,0.0,0.0,67,0.00,,---,0.00,VWS V14.01,2013-02-15 11:00:00,
2013-02-15 04:05:00,31.0,21.7,30.30,North,351,0.0,2.0,68,0.00,,---,0.00,VWS V14.01,2013-02-15 11:05:00,
2013-02-15 04:10:00,30.9,21.6,30.30,North,351,0.0,0.0,68,0.00,,---,0.00,VWS V14.01,2013-02-15 11:10:00,
2013-02-15 04:15:00,30.7,21.1,30.30,North,351,0.0,0.0,67,0.00,,---,0.00,VWS V14.01,2013-02-15 11:15:00,
2013-02-15 04:20:00,30.3,21.4,30.30,North,355,1.0,1.0,69,0.00,,---,0.00,VWS V14.01,2013-02-15 11:20:00,
2013-02-15 04:25:00,30.5,20.9,30.30,North,355,0.0,2.0,67,0.00,,---,0.00,VWS V14.01,2013-02-15 11:25:00,
2013-02-15 04:30:00,30.3,20.7,30.31,North,355,0.0,0.0,67,0.00,,---,0.00,VWS V14.01,2013-02-15 11:30:00,
2013-02-15 04:35:00,30.2,20.6,30.31,North,355,1.0,2.0,67,0.00,,---,0.00,VWS V14.01,2013-02-15 11:35:00,
2013-02-15 04:40:00,30.2,20.2,30.31,NNE,15,2.0,3.0,66,0.00,,---,0.00,VWS V14.01,2013-02-15 11:40:00,
2013-02-15 04:45:00,30.5,20.1,30.31,North,360,0.0,2.0,65,0.00,,---,0.00,VWS V14.01,2013-02-15 11:45:00,
2013-02-15 04:50:00,30.7,20.3,30.32,NNE,16,2.0,4.0,65,0.00,,---,0.00,VWS V14.01,2013-02-15 11:50:00,
2013-02-15 04:55:00,30.6,19.9,30.31,North,5,1.0,1.0,64,0.00,,---,0.00,VWS V14.01,2013-02-15 11:55:00,
2013-02-15 05:00:00,30.4,19.7,30.31,NE,44,0.0,2.0,64,0.00,,---,0.00,VWS V14.01,2013-02-15 12:00:00,
2013-02-15 05:05:00,30.2,19.9,30.31,NE,44,1.0,1.0,65,0.00,,---,0.00,VWS V14.01,2013-02-15 12:05:00,
2013-02-15 05:10:00,29.9,19.6,30.31,East,95,0.0,2.0,65,0.00,,---,0.00,VWS V14.01,2013-02-15 12:10:00,
2013-02-15 05:15:00,29.6,19.3,30.31,East,94,0.0,0.0,65,0.00,,---,0.00,VWS V14.01,2013-02-15 12:15:00,
2013-02-15 05:20:00,29.5,19.2,30.31,East,94,0.0,0.0,65,0.00,,---,0.00,VWS V14.01,2013-02-15 12:20:00,
2013-02-15 05:25:00,29.3,19.0,30.31,East,94,0.0,0.0,65,0.00,,---,0.00,VWS V14.01,2013-02-15 12:25:00,
2013-02-15 05:30:00,29.0,19.1,30.31,East,94,0.0,0.0,66,0.00,,---,0.00,VWS V14.01,2013-02-15 12:30:00,
2013-02-15 05:35:00,28.5,19.0,30.31,East,95,0.0,0.0,67,0.00,,---,0.00,VWS V14.01,2013-02-15 12:35:00,
2013-02-15 05:40:00,28.0,18.5,30.31,East,94,0.0,0.0,67,0.00,,---,0.00,VWS V14.01,2013-02-15 12:40:00,
2013-02-15 05:45:00,27.6,18.8,30.31,East,95,0.0,0.0,69,0.00,,---,0.00,VWS V14.01,2013-02-15 12:45:00,
2013-02-15 05:50:00,27.4,18.6,30.31,East,95,0.0,0.0,69,0.00,,---,0.00,VWS V14.01,2013-02-15 12:50:00,
2013-02-15 05:55:00,27.0,18.5,30.31,East,95,0.0,0.0,70,0.00,,---,0.00,VWS V14.01,2013-02-15 12:55:00,
2013-02-15 06:00:00,26.7,18.6,30.31,East,95,0.0,0.0,71,0.00,,---,0.00,VWS V14.01,2013-02-15 13:00:00,
2013-02-15 06:05:00,27.0,18.9,30.32,East,95,0.0,0.0,71,0.00,,---,0.00,VWS V14.01,2013-02-15 13:05:00,
2013-02-15 06:10:00,27.0,18.9,30.32,East,95,0.0,0.0,71,0.00,,---,0.00,VWS V14.01,2013-02-15 13:10:00,
2013-02-15 06:15:00,27.1,19.3,30.32,East,95,0.0,0.0,72,0.00,,---,0.00,VWS V14.01,2013-02-15 13:15:00,
2013-02-15 06:20:00,27.1,19.3,30.32,East,95,0.0,0.0,72,0.00,,---,0.00,VWS V14.01,2013-02-15 13:20:00,
2013-02-15 06:25:00,26.9,19.1,30.32,East,95,0.0,0.0,72,0.00,,---,0.00,VWS V14.01,2013-02-15 13:25:00,
2013-02-15 06:30:00,26.6,19.4,30.32,East,95,0.0,0.0,74,0.00,,---,0.00,VWS V14.01,2013-02-15 13:30:00,
2013-02-15 06:35:00,26.8,20.3,30.32,East,95,0.0,0.0,76,0.00,,---,0.00,VWS V14.01,2013-02-15 13:35:00,
2013-02-15 06:40:00,26.9,20.4,30.32,East,95,0.0,0.0,76,0.00,,---,0.00,VWS V14.01,2013-02-15 13:40:00,
2013-02-15 06:45:00,27.0,20.1,30.32,East,94,0.0,0.0,75,0.00,,---,0.00,VWS V14.01,2013-02-15 13:45:00,
2013-02-15 06:50:00,26.8,20.3,30.32,East,94,0.0,0.0,76,0.00,,---,0.00,VWS V14.01,2013-02-15 13:50:00,
2013-02-15 06:55:00,26.6,19.8,30.32,East,95,0.0,0.0,75,0.00,,---,0.00,VWS V14.01,2013-02-15 13:55:00,
2013-02-15 07:00:00,26.5,19.7,30.32,East,95,0.0,0.0,75,0.00,,---,0.00,VWS V14.01,2013-02-15 14:00:00,
2013-02-15 07:05:00,26.3,19.8,30.32,East,95,0.0,0.0,76,0.00,,---,0.00,VWS V14.01,2013-02-15 14:05:00,
2013-02-15 07:10:00,26.2,19.4,30.32,East,94,0.0,0.0,75,0.00,,---,0.00,VWS V14.01,2013-02-15 14:10:00,
2013-02-15 07:15:00,25.8,19.3,30.32,East,95,0.0,0.0,76,0.00,,---,0.00,VWS V14.01,2013-02-15 14:15:00,
2013-02-15 07:20:00,26.0,19.8,30.33,East,95,0.0,0.0,77,0.00,,---,0.00,VWS V14.01,2013-02-15 14:20:00,
2013-02-15 07:25:00,26.7,20.2,30.33,East,95,0.0,0.0,76,0.00,,---,0.00,VWS V14.01,2013-02-15 14:25:00,
2013-02-15 07:30:00,27.3,20.4,30.33,East,95,0.0,0.0,75,0.00,,---,0.00,VWS V14.01,2013-02-15 14:30:00,
2013-02-15 07:35:00,27.6,20.1,30.33,East,95,1.0,1.0,73,0.00,,---,0.00,VWS V14.01,2013-02-15 14:35:00,
2013-02-15 07:40:00,28.0,20.8,30.34,East,95,0.0,0.0,74,0.00,,---,0.00,VWS V14.01,2013-02-15 14:40:00,
2013-02-15 07:45:00,28.8,20.9,30.34,East,95,0.0,0.0,72,0.00,,---,0.00,VWS V14.01,2013-02-15 14:45:00,
2013-02-15 07:50:00,29.7,21.1,30.34,East,94,0.0,0.0,70,0.00,,---,0.00,VWS V14.01,2013-02-15 14:50:00,
2013-02-15 07:55:00,30.9,21.6,30.34,East,94,0.0,0.0,68,0.00,,---,0.00,VWS V14.01,2013-02-15 14:55:00,
2013-02-15 08:00:00,31.5,21.1,30.35,NE,41,0.0,2.0,65,0.00,,---,0.00,VWS V14.01,2013-02-15 15:00:00,
2013-02-15 08:05:00,31.5,20.7,30.35,North,360,1.0,2.0,64,0.00,,---,0.00,VWS V14.01,2013-02-15 15:05:00,
2013-02-15 08:10:00,31.7,20.6,30.35,North,360,0.0,2.0,63,0.00,,---,0.00,VWS V14.01,2013-02-15 15:10:00,
2013-02-15 08:15:00,32.0,20.9,30.35,NNE,26,2.0,2.0,63,0.00,,---,0.00,VWS V14.01,2013-02-15 15:15:00,
2013-02-15 08:20:00,32.6,21.0,30.35,NNE,26,0.0,0.0,62,0.00,,---,0.00,VWS V14.01,2013-02-15 15:20:00,
2013-02-15 08:25:00,32.8,20.5,30.35,NNE,26,0.0,0.0,60,0.00,,---,0.00,VWS V14.01,2013-02-15 15:25:00,
2013-02-15 08:30:00,32.6,20.7,30.35,NNE,26,0.0,0.0,61,0.00,,---,0.00,VWS V14.01,2013-02-15 15:30:00,
2013-02-15 08:35:00,33.7,20.9,30.36,NNE,26,0.0,1.0,59,0.00,,---,0.00,VWS V14.01,2013-02-15 15:35:00,
2013-02-15 08:40:00,33.5,20.7,30.36,NNE,26,1.0,1.0,59,0.00,,---,0.00,VWS V14.01,2013-02-15 15:40:00,
2013-02-15 08:45:00,34.3,21.1,30.35,NNE,26,1.0,1.0,58,0.00,,---,0.00,VWS V14.01,2013-02-15 15:45:00,
2013-02-15 08:50:00,34.5,20.9,30.36,NNE,26,0.0,0.0,57,0.00,,---,0.00,VWS V14.01,2013-02-15 15:50:00,
2013-02-15 08:55:00,34.5,20.4,30.36,SE,141,1.0,1.0,56,0.00,,---,0.00,VWS V14.01,2013-02-15 15:55:00,
2013-02-15 09:00:00,34.9,21.2,30.36,ENE,72,0.0,3.0,57,0.00,,---,0.00,VWS V14.01,2013-02-15 16:00:00,
2013-02-15 09:05:00,35.2,20.7,30.36,SSE,148,1.0,2.0,55,0.00,,---,0.00,VWS V14.01,2013-02-15 16:05:00,
2013-02-15 09:10:00,34.9,20.4,30.36,SE,130,1.0,2.0,55,0.00,,---,0.00,VWS V14.01,2013-02-15 16:10:00,
2013-02-15 09:15:00,35.5,21.4,30.35,ESE,117,0.0,1.0,56,0.00,,---,0.00,VWS V14.01,2013-02-15 16:15:00,
2013-02-15 09:20:00,36.3,21.3,30.35,SSW,196,1.0,3.0,54,0.00,,---,0.00,VWS V14.01,2013-02-15 16:20:00,
2013-02-15 09:24:00,36.2,21.2,30.36,SE,142,2.0,4.0,54,0.00,,---,0.00,VWS V14.01,2013-02-15 16:24:00,
2013-02-15 09:25:00,36.2,21.2,30.36,SE,126,2.0,3.0,54,0.00,,---,0.00,VWS V14.01,2013-02-15 16:25:00,
2013-02-15 09:29:00,36.3,20.8,30.36,ESE,118,1.0,2.0,53,0.00,,---,0.00,VWS V14.01,2013-02-15 16:29:00,
2013-02-15 09:30:00,36.3,20.8,30.36,South,182,2.0,4.0,53,0.00,,---,0.00,VWS V14.01,2013-02-15 16:30:00,
2013-02-15 09:34:00,37.0,21.0,30.36,SSW,206,0.0,1.0,52,0.00,,---,0.00,VWS V14.01,2013-02-15 16:34:00,
2013-02-15 09:35:00,37.0,21.0,30.36,SSW,202,1.0,5.0,52,0.00,,---,0.00,VWS V14.01,2013-02-15 16:35:00,
2013-02-15 09:39:00,37.6,21.1,30.36,SSW,201,4.0,5.0,51,0.00,,---,0.00,VWS V14.01,2013-02-15 16:39:00,
2013-02-15 09:40:00,37.6,21.6,30.36,SW,224,3.0,5.0,52,0.00,,---,0.00,VWS V14.01,2013-02-15 16:40:00,
2013-02-15 09:44:00,37.6,21.6,30.36,WSW,249,0.0,1.0,52,0.00,,---,0.00,VWS V14.01,2013-02-15 16:44:00,
2013-02-15 09:45:00,37.5,21.5,30.36,WSW,244,0.0,5.0,52,0.00,,---,0.00,VWS V14.01,2013-02-15 16:45:00,
2013-02-15 09:49:00,38.4,21.9,30.36,NNE,22,3.0,4.0,51,0.00,,---,0.00,VWS V14.01,2013-02-15 16:49:00,
2013-02-15 09:50:00,38.4,21.9,30.36,NNW,328,2.0,2.0,51,0.00,,---,0.00,VWS V14.01,2013-02-15 16:50:00,
2013-02-15 09:54:00,39.1,21.6,30.36,SW,236,2.0,3.0,49,0.00,,---,0.00,VWS V14.01,2013-02-15 16:54:00,
2013-02-15 09:55:00,39.2,22.1,30.36,SSW,213,1.0,4.0,50,0.00,,---,0.00,VWS V14.01,2013-02-15 16:55:00,
2013-02-15 09:59:00,39.2,22.1,30.36,SSW,209,0.0,2.0,50,0.00,,---,0.00,VWS V14.01,2013-02-15 16:59:00,
2013-02-15 10:00:00,39.2,21.7,30.36,SSW,209,2.0,3.0,49,0.00,,---,0.00,VWS V14.01,2013-02-15 17:00:00,
2013-02-15 10:04:00,38.7,21.2,30.36,South,188,2.0,3.0,49,0.00,,---,0.00,VWS V14.01,2013-02-15 17:04:00,
2013-02-15 10:09:00,38.9,21.9,30.36,South,188,2.0,5.0,50,0.00,,---,0.00,VWS V14.01,2013-02-15 17:09:00,
2013-02-15 10:10:00,38.8,22.2,30.36,South,185,3.0,5.0,51,0.00,,---,0.00,VWS V14.01,2013-02-15 17:10:00,
2013-02-15 10:14:00,39.3,21.8,30.36,SE,145,2.0,3.0,49,0.00,,---,0.00,VWS V14.01,2013-02-15 17:14:00,
2013-02-15 10:15:00,39.3,22.2,30.36,South,173,2.0,5.0,50,0.00,,---,0.00,VWS V14.01,2013-02-15 17:15:00,
2013-02-15 10:19:00,38.9,21.9,30.36,ESE,105,2.0,3.0,50,0.00,,---,0.00,VWS V14.01,2013-02-15 17:19:00,
2013-02-15 10:20:00,38.8,21.8,30.36,SSE,147,3.0,3.0,50,0.00,,---,0.00,VWS V14.01,2013-02-15 17:20:00,
2013-02-15 10:24:00,40.0,21.9,30.36,SSW,206,3.0,3.0,48,0.00,,---,0.00,VWS V14.01,2013-02-15 17:24:00,
2013-02-15 10:25:00,40.0,21.9,30.36,SSW,194,1.0,3.0,48,0.00,,---,0.00,VWS V14.01,2013-02-15 17:25:00,
2013-02-15 10:29:00,40.1,22.0,30.36,SW,231,0.0,1.0,48,0.00,,---,0.00,VWS V14.01,2013-02-15 17:29:00,
2013-02-15 10:30:00,40.2,22.1,30.36,WSW,251,0.0,4.0,48,0.00,,---,0.00,VWS V14.01,2013-02-15 17:30:00,
2013-02-15 10:34:00,40.7,22.1,30.36,SE,141,2.0,3.0,47,0.00,,---,0.00,VWS V14.01,2013-02-15 17:34:00,
2013-02-15 10:35:00,40.6,22.0,30.36,SSE,148,2.0,5.0,47,0.00,,---,0.00,VWS V14.01,2013-02-15 17:35:00,
2013-02-15 10:39:00,40.9,21.7,30.36,WSW,243,0.0,0.0,46,0.00,,---,0.00,VWS V14.01,2013-02-15 17:39:00,
2013-02-15 10:40:00,40.8,21.6,30.36,WSW,242,0.0,4.0,46,0.00,,---,0.00,VWS V14.01,2013-02-15 17:40:00,
2013-02-15 10:44:00,40.4,20.2,30.36,South,183,1.0,2.0,44,0.00,,---,0.00,VWS V14.01,2013-02-15 17:44:00,
2013-02-15 10:45:00,40.5,20.9,30.35,SW,223,2.0,5.0,45,0.00,,---,0.00,VWS V14.01,2013-02-15 17:45:00,
2013-02-15 10:49:00,40.5,21.4,30.35,South,174,1.0,2.0,46,0.00,,---,0.00,VWS V14.01,2013-02-15 17:49:00,
2013-02-15 10:50:00,40.2,21.1,30.35,South,175,2.0,4.0,46,0.00,,---,0.00,VWS V14.01,2013-02-15 17:50:00,
2013-02-15 10:54:00,41.3,20.0,30.35,North,360,3.0,3.0,42,0.00,,---,0.00,VWS V14.01,2013-02-15 17:54:00,
2013-02-15 10:55:00,41.3,20.0,30.35,NNW,342,2.0,2.0,42,0.00,,---,0.00,VWS V14.01,2013-02-15 17:55:00,
2013-02-15 10:59:00,41.5,19.6,30.35,NNW,331,2.0,2.0,41,0.00,,---,0.00,VWS V14.01,2013-02-15 17:59:00,
2013-02-15 11:00:00,41.6,19.7,30.34,NNW,330,1.0,5.0,41,0.00,,---,0.00,VWS V14.01,2013-02-15 18:00:00,
2013-02-15 11:04:00,42.0,19.5,30.34,North,355,2.0,4.0,40,0.00,,---,0.00,VWS V14.01,2013-02-15 18:04:00,
2013-02-15 11:05:00,41.8,19.3,30.34,North,351,0.0,5.0,40,0.00,,---,0.00,VWS V14.01,2013-02-15 18:05:00,
2013-02-15 11:09:00,42.6,20.0,30.34,NNW,333,3.0,4.0,40,0.00,,---,0.00,VWS V14.01,2013-02-15 18:09:00,
2013-02-15 11:10:00,42.5,19.9,30.34,NNW,338,1.0,4.0,40,0.00,,---,0.00,VWS V14.01,2013-02-15 18:10:00,
2013-02-15 11:14:00,42.9,19.7,30.34,North,355,1.0,1.0,39,0.00,,---,0.00,VWS V14.01,2013-02-15 18:14:00,
2013-02-15 11:15:00,43.1,19.8,30.34,North,355,0.0,7.0,39,0.00,,---,0.00,VWS V14.01,2013-02-15 18:15:00,
2013-02-15 11:19:00,42.8,19.6,30.34,WSW,244,2.0,2.0,39,0.00,,---,0.00,VWS V14.01,2013-02-15 18:19:00,
2013-02-15 11:20:00,42.8,19.6,30.34,WSW,248,2.0,3.0,39,0.00,,---,0.00,VWS V14.01,2013-02-15 18:20:00,
2013-02-15 11:25:00,42.3,19.1,30.34,NNW,338,2.0,2.0,39,0.00,,---,0.00,VWS V14.01,2013-02-15 18:25:00,
2013-02-15 11:30:00,43.5,19.0,30.34,North,350,2.0,5.0,37,0.00,,---,0.00,VWS V14.01,2013-02-15 18:30:00,
2013-02-15 11:35:00,44.0,18.8,30.33,NW,319,1.0,4.0,36,0.00,,---,0.00,VWS V14.01,2013-02-15 18:35:00,
2013-02-15 11:40:00,44.3,19.0,30.33,WNW,303,1.0,3.0,36,0.00,,---,0.00,VWS V14.01,2013-02-15 18:40:00,
2013-02-15 11:45:00,44.3,18.4,30.33,North,355,2.0,9.0,35,0.00,,---,0.00,VWS V14.01,2013-02-15 18:45:00,
2013-02-15 11:50:00,44.1,18.2,30.33,West,277,2.0,6.0,35,0.00,,---,0.00,VWS V14.01,2013-02-15 18:50:00,
2013-02-15 11:55:00,44.9,17.6,30.33,NW,314,2.0,4.0,33,0.00,,---,0.00,VWS V14.01,2013-02-15 18:55:00,
2013-02-15 12:00:00,45.4,18.7,30.33,NW,319,1.0,4.0,34,0.00,,---,0.00,VWS V14.01,2013-02-15 19:00:00,
2013-02-15 12:05:00,45.8,18.4,30.32,NNE,22,1.0,5.0,33,0.00,,---,0.00,VWS V14.01,2013-02-15 19:05:00,
2013-02-15 12:10:00,46.0,18.5,30.32,NNW,338,3.0,10.0,33,0.00,,---,0.00,VWS V14.01,2013-02-15 19:10:00,
2013-02-15 12:15:00,45.7,16.8,30.31,NNW,338,3.0,7.0,31,0.00,,---,0.00,VWS V14.01,2013-02-15 19:15:00,
2013-02-15 12:20:00,45.6,18.2,30.31,SW,225,1.0,4.0,33,0.00,,---,0.00,VWS V14.01,2013-02-15 19:20:00,
2013-02-15 12:25:00,46.9,17.9,30.30,NNW,338,1.0,5.0,31,0.00,,---,0.00,VWS V14.01,2013-02-15 19:25:00,
2013-02-15 12:30:00,46.9,17.1,30.30,NNW,338,2.0,7.0,30,0.00,,---,0.00,VWS V14.01,2013-02-15 19:30:00,
2013-02-15 12:36:00,46.9,17.1,30.30,NNW,338,2.0,7.0,30,0.00,,---,0.00,VWS V14.01,2013-02-15 19:36:00,
2013-02-15 12:40:00,48.9,16.4,30.29,WSW,248,1.0,3.0,27,0.00,,---,0.00,VWS V14.01,2013-02-15 19:40:00,
2013-02-15 12:41:00,49.5,16.9,30.29,NW,307,4.0,5.0,27,0.00,,---,0.00,VWS V14.01,2013-02-15 19:41:00,
2013-02-15 12:45:00,49.1,16.6,30.29,North,355,1.0,5.0,27,0.00,,---,0.00,VWS V14.01,2013-02-15 19:45:00,
2013-02-15 12:46:00,49.6,16.1,30.28,ENE,69,4.0,8.0,26,0.00,,---,0.00,VWS V14.01,2013-02-15 19:46:00,
2013-02-15 12:50:00,50.7,12.2,30.28,WNW,299,4.0,8.0,21,0.00,,---,0.00,VWS V14.01,2013-02-15 19:50:00,
2013-02-15 12:51:00,50.8,11.2,30.28,West,261,4.0,13.0,20,0.00,,---,0.00,VWS V14.01,2013-02-15 19:51:00,
2013-02-15 12:55:00,50.8,11.2,30.28,North,351,5.0,13.0,20,0.00,,---,0.00,VWS V14.01,2013-02-15 19:55:00,
2013-02-15 12:56:00,50.6,11.0,30.28,NW,310,7.0,7.0,20,0.00,,---,0.00,VWS V14.01,2013-02-15 19:56:00,
2013-02-15 13:00:00,50.4,10.9,30.28,WNW,298,5.0,10.0,20,0.00,,---,0.00,VWS V14.01,2013-02-15 20:00:00,
2013-02-15 13:01:00,50.2,10.7,30.28,NNW,339,9.0,9.0,20,0.00,,---,0.00,VWS V14.01,2013-02-15 20:01:00,
2013-02-15 13:05:00,49.9,10.4,30.27,NNW,338,10.0,10.0,20,0.00,,---,0.00,VWS V14.01,2013-02-15 20:05:00,
2013-02-15 13:06:00,50.2,10.7,30.27,WNW,295,5.0,10.0,20,0.00,,---,0.00,VWS V14.01,2013-02-15 20:06:00,
2013-02-15 13:10:00,50.9,11.3,30.27,NW,311,7.0,14.0,20,0.00,,---,0.00,VWS V14.01,2013-02-15 20:10:00,
2013-02-15 13:11:00,50.8,11.2,30.27,NW,312,4.0,8.0,20,0.00,,---,0.00,VWS V14.01,2013-02-15 20:11:00,
2013-02-15 13:16:00,50.2,11.8,30.27,North,5,6.0,11.0,21,0.00,,---,0.00,VWS V14.01,2013-02-15 20:16:00,
2013-02-15 13:20:00,50.7,11.1,30.27,WNW,302,4.0,11.0,20,0.00,,---,0.00,VWS V14.01,2013-02-15 20:20:00,
2013-02-15 13:21:00,50.3,10.8,30.26,NW,326,6.0,8.0,20,0.00,,---,0.00,VWS V14.01,2013-02-15 20:21:00,
2013-02-15 13:25:00,50.1,10.6,30.26,NW,311,5.0,11.0,20,0.00,,---,0.00,VWS V14.01,2013-02-15 20:25:00,
2013-02-15 13:26:00,50.0,11.6,30.26,North,360,6.0,10.0,21,0.00,,---,0.00,VWS V14.01,2013-02-15 20:26:00,
2013-02-15 13:30:00,50.7,12.2,30.26,NW,319,5.0,11.0,21,0.00,,---,0.00,VWS V14.01,2013-02-15 20:30:00,
2013-02-15 13:31:00,51.0,11.4,30.26,North,355,7.0,18.0,20,0.00,,---,0.00,VWS V14.01,2013-02-15 20:31:00,
2013-02-15 13:35:00,51.1,11.4,30.26,NW,310,6.0,18.0,20,0.00,,---,0.00,VWS V14.01,2013-02-15 20:35:00,
2013-02-15 13:36:00,51.1,10.3,30.25,WNW,290,7.0,19.0,19,0.00,,---,0.00,VWS V14.01,2013-02-15 20:36:00,
2013-02-15 13:40:00,51.5,9.4,30.25,NNE,14,7.0,19.0,18,0.00,,---,0.00,VWS V14.01,2013-02-15 20:40:00,
2013-02-15 13:41:00,51.5,9.4,30.25,WNW,290,4.0,17.0,18,0.00,,---,0.00,VWS V14.01,2013-02-15 20:41:00,
2013-02-15 13:46:00,51.5,8.1,30.26,NNW,328,4.0,15.0,17,0.00,,---,0.00,VWS V14.01,2013-02-15 20:46:00,
2013-02-15 13:50:00,51.6,8.2,30.25,NNW,333,6.0,15.0,17,0.00,,---,0.00,VWS V14.01,2013-02-15 20:50:00,
2013-02-15 13:51:00,51.8,8.4,30.25,WNW,298,6.0,10.0,17,0.00,,---,0.00,VWS V14.01,2013-02-15 20:51:00,
2013-02-15 13:55:00,51.9,4.2,30.25,West,277,6.0,18.0,14,0.00,,---,0.00,VWS V14.01,2013-02-15 20:55:00,
2013-02-15 13:56:00,51.9,5.7,30.25,NNE,13,13.0,14.0,15,0.00,,---,0.00,VWS V14.01,2013-02-15 20:56:00,
2013-02-15 14:00:00,51.7,5.6,30.25,NW,306,5.0,14.0,15,0.00,,---,0.00,VWS V14.01,2013-02-15 21:00:00,
2013-02-15 14:01:00,51.4,5.3,30.24,North,350,9.0,11.0,15,0.00,,---,0.00,VWS V14.01,2013-02-15 21:01:00,
2013-02-15 14:05:00,51.6,4.0,30.24,North,5,6.0,11.0,14,0.00,,---,0.00,VWS V14.01,2013-02-15 21:05:00,
2013-02-15 14:06:00,51.9,4.2,30.24,WNW,290,4.0,11.0,14,0.00,,---,0.00,VWS V14.01,2013-02-15 21:06:00,
2013-02-15 14:10:00,52.6,3.2,30.25,NW,323,8.0,24.0,13,0.00,,---,0.00,VWS V14.01,2013-02-15 21:10:00,
2013-02-15 14:11:00,52.5,1.4,30.25,West,276,8.0,12.0,12,0.00,,---,0.00,VWS V14.01,2013-02-15 21:11:00,
2013-02-15 14:15:00,51.9,0.9,30.24,WNW,297,10.0,21.0,12,0.00,,---,0.00,VWS V14.01,2013-02-15 21:15:00,
2013-02-15 14:16:00,51.7,0.7,30.24,NW,325,8.0,13.0,12,0.00,,---,0.00,VWS V14.01,2013-02-15 21:16:00,
2013-02-15 14:20:00,51.9,0.9,30.25,West,261,4.0,13.0,12,0.00,,---,0.00,VWS V14.01,2013-02-15 21:20:00,
2013-02-15 14:21:00,51.9,0.9,30.25,NNW,341,7.0,12.0,12,0.00,,---,0.00,VWS V14.01,2013-02-15 21:21:00,
2013-02-15 14:25:00,52.1,2.8,30.25,NNW,336,3.0,13.0,13,0.00,,---,0.00,VWS V14.01,2013-02-15 21:25:00,
2013-02-15 14:26:00,52.6,3.2,30.25,NNW,327,6.0,12.0,13,0.00,,---,0.00,VWS V14.01,2013-02-15 21:26:00,
2013-02-15 14:30:00,52.6,3.2,30.25,NNW,337,7.0,16.0,13,0.00,,---,0.00,VWS V14.01,2013-02-15 21:30:00,
2013-02-15 14:31:00,52.7,3.2,30.25,NW,304,11.0,11.0,13,0.00,,---,0.00,VWS V14.01,2013-02-15 21:31:00,
2013-02-15 14:35:00,52.6,4.8,30.25,NNW,329,9.0,16.0,14,0.00,,---,0.00,VWS V14.01,2013-02-15 21:35:00,
2013-02-15 14:36:00,52.5,3.1,30.25,WNW,302,5.0,11.0,13,0.00,,---,0.00,VWS V14.01,2013-02-15 21:36:00,
2013-02-15 14:40:00,52.4,1.3,30.25,WNW,291,8.0,12.0,12,0.00,,---,0.00,VWS V14.01,2013-02-15 21:40:00,
2013-02-15 14:41:00,52.6,1.5,30.25,NNW,329,5.0,9.0,12,0.00,,---,0.00,VWS V14.01,2013-02-15 21:41:00,
2013-02-15 14:45:00,52.9,-0.2,30.25,North,5,4.0,20.0,11,0.00,,---,0.00,VWS V14.01,2013-02-15 21:45:00,
2013-02-15 14:46:00,52.9,-0.2,30.25,NNW,329,8.0,15.0,11,0.00,,---,0.00,VWS V14.01,2013-02-15 21:46:00,
2013-02-15 14:50:00,52.5,1.4,30.25,NNW,338,5.0,15.0,12,0.00,,---,0.00,VWS V14.01,2013-02-15 21:50:00,
2013-02-15 14:51:00,52.3,1.2,30.25,NNW,340,8.0,18.0,12,0.00,,---,0.00,VWS V14.01,2013-02-15 21:51:00,
2013-02-15 14:55:00,52.0,1.0,30.25,NNW,342,7.0,18.0,12,0.00,,---,0.00,VWS V14.01,2013-02-15 21:55:00,
2013-02-15 14:56:00,51.8,0.8,30.25,North,360,8.0,12.0,12,0.00,,---,0.00,VWS V14.01,2013-02-15 21:56:00,
2013-02-15 15:00:00,51.9,0.9,30.25,North,360,12.0,12.0,12,0.00,,---,0.00,VWS V14.01,2013-02-15 22:00:00,
2013-02-15 15:01:00,52.2,1.1,30.25,NW,316,3.0,12.0,12,0.00,,---,0.00,VWS V14.01,2013-02-15 22:01:00,
2013-02-15 15:05:00,52.6,1.5,30.25,WNW,295,5.0,12.0,12,0.00,,---,0.00,VWS V14.01,2013-02-15 22:05:00,
2013-02-15 15:06:00,52.6,-0.4,30.25,NNW,331,14.0,14.0,11,0.00,,---,0.00,VWS V14.01,2013-02-15 22:06:00,
2013-02-15 15:10:00,52.6,1.5,30.25,NE,45,5.0,14.0,12,0.00,,---,0.00,VWS V14.01,2013-02-15 22:10:00,
2013-02-15 15:11:00,52.5,1.4,30.25,NW,304,16.0,16.0,12,0.00,,---,0.00,VWS V14.01,2013-02-15 22:11:00,
2013-02-15 15:15:00,52.2,1.1,30.25,North,355,8.0,16.0,12,0.00,,---,0.00,VWS V14.01,2013-02-15 22:15:00,
2013-02-15 15:16:00,52.3,1.2,30.26,North,355,9.0,15.0,12,0.00,,---,0.00,VWS V14.01,2013-02-15 22:16:00,
2013-02-15 15:20:00,52.0,2.7,30.25,NNW,348,3.0,15.0,13,0.00,,---,0.00,VWS V14.01,2013-02-15 22:20:00,
2013-02-15 15:21:00,52.1,2.8,30.25,WNW,294,4.0,7.0,13,0.00,,---,0.00,VWS V14.01,2013-02-15 22:21:00,
2013-02-15 15:25:00,52.2,1.1,30.25,NNW,330,11.0,15.0,12,0.00,,---,0.00,VWS V14.01,2013-02-15 22:25:00,
2013-02-15 15:26:00,52.4,1.3,30.25,NNE,13,8.0,15.0,12,0.00,,---,0.00,VWS V14.01,2013-02-15 22:26:00,
2013-02-15 15:30:00,52.3,1.2,30.25,WNW,292,7.0,15.0,12,0.00,,---,0.00,VWS V14.01,2013-02-15 22:30:00,
2013-02-15 15:31:00,52.1,1.0,30.25,NNW,336,10.0,11.0,12,0.00,,---,0.00,VWS V14.01,2013-02-15 22:31:00,
2013-02-15 15:35:00,52.0,1.0,30.26,NE,51,11.0,12.0,12,0.00,,---,0.00,VWS V14.01,2013-02-15 22:35:00,
2013-02-15 15:36:00,52.0,1.0,30.26,West,267,5.0,13.0,12,0.00,,---,0.00,VWS V14.01,2013-02-15 22:36:00,
2013-02-15 15:40:00,51.5,0.6,30.26,NW,304,11.0,13.0,12,0.00,,---,0.00,VWS V14.01,2013-02-15 22:40:00,
2013-02-15 15:41:00,51.7,2.5,30.26,WNW,284,3.0,11.0,13,0.00,,---,0.00,VWS V14.01,2013-02-15 22:41:00,
2013-02-15 15:45:00,52.1,1.0,30.26,NW,309,5.0,11.0,12,0.00,,---,0.00,VWS V14.01,2013-02-15 22:45:00,
2013-02-15 15:46:00,51.8,0.8,30.26,North,5,7.0,10.0,12,0.00,,---,0.00,VWS V14.01,2013-02-15 22:46:00,
2013-02-15 15:50:00,51.5,2.3,30.26,WNW,291,3.0,10.0,13,0.00,,---,0.00,VWS V14.01,2013-02-15 22:50:00,
2013-02-15 15:51:00,51.7,2.5,30.26,NW,310,5.0,6.0,13,0.00,,---,0.00,VWS V14.01,2013-02-15 22:51:00,
2013-02-15 15:55:00,51.6,2.4,30.26,NW,304,7.0,13.0,13,0.00,,---,0.00,VWS V14.01,2013-02-15 22:55:00,
2013-02-15 15:56:00,51.6,2.4,30.26,West,260,6.0,10.0,13,0.00,,---,0.00,VWS V14.01,2013-02-15 22:56:00,
2013-02-15 16:00:00,51.7,2.5,30.26,NNW,340,12.0,12.0,13,0.00,,---,0.00,VWS V14.01,2013-02-15 23:00:00,
2013-02-15 16:01:00,51.5,2.3,30.26,NW,315,4.0,12.0,13,0.00,,---,0.00,VWS V14.01,2013-02-15 23:01:00,
2013-02-15 16:05:00,51.1,3.6,30.26,WNW,301,6.0,9.0,14,0.00,,---,0.00,VWS V14.01,2013-02-15 23:05:00,
2013-02-15 16:10:00,51.2,3.7,30.26,NNW,342,7.0,10.0,14,0.00,,---,0.00,VWS V14.01,2013-02-15 23:10:00,
2013-02-15 16:15:00,51.2,2.1,30.26,WNW,296,8.0,9.0,13,0.00,,---,0.00,VWS V14.01,2013-02-15 23:15:00,
2013-02-15 16:20:00,51.3,3.7,30.26,North,360,7.0,7.0,14,0.00,,---,0.00,VWS V14.01,2013-02-15 23:20:00,
2013-02-15 16:25:00,51.6,2.4,30.26,WNW,292,9.0,10.0,13,0.00,,---,0.00,VWS V14.01,2013-02-15 23:25:00,
2013-02-15 16:30:00,51.2,2.1,30.26,WNW,298,8.0,10.0,13,0.00,,---,0.00,VWS V14.01,2013-02-15 23:30:00,
2013-02-15 16:35:00,51.0,3.5,30.27,NW,309,9.0,11.0,14,0.00,,---,0.00,VWS V14.01,2013-02-15 23:35:00,
2013-02-15 16:40:00,51.1,2.0,30.27,NNW,340,6.0,10.0,13,0.00,,---,0.00,VWS V14.01,2013-02-15 23:40:00,
2013-02-15 16:45:00,50.7,1.7,30.27,WNW,298,5.0,10.0,13,0.00,,---,0.00,VWS V14.01,2013-02-15 23:45:00,
2013-02-15 16:50:00,50.8,3.3,30.27,NNW,342,8.0,12.0,14,0.00,,---,0.00,VWS V14.01,2013-02-15 23:50:00,
2013-02-15 16:55:00,50.6,3.2,30.27,NW,322,4.0,8.0,14,0.00,,---,0.00,VWS V14.01,2013-02-15 23:55:00,
2013-02-15 17:00:00,50.5,3.1,30.27,NNW,331,6.0,9.0,14,0.00,,---,0.00,VWS V14.01,2013-02-16 00:00:00,
2013-02-15 17:05:00,50.3,2.9,30.28,WNW,283,7.0,7.0,14,0.00,,---,0.00,VWS V14.01,2013-02-16 00:05:00,
2013-02-15 17:10:00,50.3,2.9,30.28,North,355,6.0,7.0,14,0.00,,---,0.00,VWS V14.01,2013-02-16 00:10:00,
2013-02-15 17:15:00,50.1,2.8,30.28,NNW,338,3.0,7.0,14,0.00,,---,0.00,VWS V14.01,2013-02-16 00:15:00,
2013-02-15 17:20:00,49.9,4.1,30.28,NNW,347,5.0,8.0,15,0.00,,---,0.00,VWS V14.01,2013-02-16 00:20:00,
2013-02-15 17:25:00,49.6,5.3,30.28,NW,309,1.0,10.0,16,0.00,,---,0.00,VWS V14.01,2013-02-16 00:25:00,
2013-02-15 17:30:00,49.3,5.0,30.28,NNW,348,4.0,7.0,16,0.00,,---,0.00,VWS V14.01,2013-02-16 00:30:00,
2013-02-15 17:35:00,49.1,4.9,30.28,NNW,330,2.0,5.0,16,0.00,,---,0.00,VWS V14.01,2013-02-16 00:35:00,
2013-02-15 17:40:00,48.8,4.6,30.28,NNW,329,2.0,3.0,16,0.00,,---,0.00,VWS V14.01,2013-02-16 00:40:00,
2013-02-15 17:45:00,48.6,3.0,30.28,NW,321,2.0,7.0,15,0.00,,---,0.00,VWS V14.01,2013-02-16 00:45:00,
2013-02-15 17:50:00,48.4,2.9,30.29,NNW,331,2.0,4.0,15,0.00,,---,0.00,VWS V14.01,2013-02-16 00:50:00,
2013-02-15 17:55:00,48.2,2.7,30.29,WNW,302,2.0,3.0,15,0.00,,---,0.00,VWS V14.01,2013-02-16 00:55:00,
2013-02-15 18:00:00,48.0,4.0,30.29,NNW,347,3.0,5.0,16,0.00,,---,0.00,VWS V14.01,2013-02-16 01:00:00,
2013-02-15 18:05:00,47.8,3.8,30.29,NW,306,3.0,4.0,16,0.00,,---,0.00,VWS V14.01,2013-02-16 01:05:00,
2013-02-15 18:10:00,47.7,3.7,30.29,NW,319,3.0,4.0,16,0.00,,---,0.00,VWS V14.01,2013-02-16 01:10:00,
2013-02-15 18:15:00,47.5,3.6,30.30,NNW,334,3.0,3.0,16,0.00,,---,0.00,VWS V14.01,2013-02-16 01:15:00,
2013-02-15 18:20:00,47.2,4.6,30.30,NW,313,2.0,2.0,17,0.00,,---,0.00,VWS V14.01,2013-02-16 01:20:00,
2013-02-15 18:25:00,46.9,4.4,30.30,NW,315,0.0,3.0,17,0.00,,---,0.00,VWS V14.01,2013-02-16 01:25:00,
2013-02-15 18:30:00,46.6,4.1,30.30,NNW,327,1.0,2.0,17,0.00,,---,0.00,VWS V14.01,2013-02-16 01:30:00,
2013-02-15 18:35:00,46.3,3.9,30.30,NNW,327,0.0,1.0,17,0.00,,---,0.00,VWS V14.01,2013-02-16 01:35:00,
2013-02-15 18:40:00,45.8,4.7,30.30,NW,323,2.0,2.0,18,0.00,,---,0.00,VWS V14.01,2013-02-16 01:40:00,
2013-02-15 18:45:00,45.7,4.6,30.30,NW,321,0.0,4.0,18,0.00,,---,0.00,VWS V14.01,2013-02-16 01:45:00,
2013-02-15 18:50:00,45.8,4.7,30.30,NW,321,1.0,2.0,18,0.00,,---,0.00,VWS V14.01,2013-02-16 01:50:00,
2013-02-15 18:55:00,45.6,4.6,30.31,NW,307,2.0,3.0,18,0.00,,---,0.00,VWS V14.01,2013-02-16 01:55:00,
2013-02-15 19:00:00,45.3,4.3,30.31,NNW,334,2.0,2.0,18,0.00,,---,0.00,VWS V14.01,2013-02-16 02:00:00,
2013-02-15 19:05:00,45.1,4.1,30.31,NW,319,2.0,3.0,18,0.00,,---,0.00,VWS V14.01,2013-02-16 02:05:00,
2013-02-15 19:10:00,44.9,4.0,30.32,NNW,331,1.0,2.0,18,0.00,,---,0.00,VWS V14.01,2013-02-16 02:10:00,
2013-02-15 19:15:00,44.7,3.8,30.32,NNE,20,2.0,4.0,18,0.00,,---,0.00,VWS V14.01,2013-02-16 02:15:00,
2013-02-15 19:20:00,44.5,4.8,30.32,NNW,341,3.0,7.0,19,0.00,,---,0.00,VWS V14.01,2013-02-16 02:20:00,
2013-02-15 19:25:00,44.2,4.6,30.32,NNW,334,0.0,3.0,19,0.00,,---,0.00,VWS V14.01,2013-02-16 02:25:00,
2013-02-15 19:30:00,43.9,4.3,30.32,NW,325,1.0,2.0,19,0.00,,---,0.00,VWS V14.01,2013-02-16 02:30:00,
2013-02-15 19:35:00,43.6,5.2,30.33,NNW,327,1.0,3.0,20,0.00,,---,0.00,VWS V14.01,2013-02-16 02:35:00,
2013-02-15 19:40:00,43.2,4.8,30.33,NNW,327,1.0,1.0,20,0.00,,---,0.00,VWS V14.01,2013-02-16 02:40:00,
2013-02-15 19:45:00,42.8,5.6,30.33,NW,325,0.0,1.0,21,0.00,,---,0.00,VWS V14.01,2013-02-16 02:45:00,
2013-02-15 19:50:00,42.4,5.2,30.33,NNW,329,0.0,3.0,21,0.00,,---,0.00,VWS V14.01,2013-02-16 02:50:00,
2013-02-15 19:55:00,42.0,5.9,30.33,NNE,20,0.0,1.0,22,0.00,,---,0.00,VWS V14.01,2013-02-16 02:55:00,
2013-02-15 20:00:00,41.8,5.8,30.33,NE,50,0.0,1.0,22,0.00,,---,0.00,VWS V14.01,2013-02-16 03:00:00,
2013-02-15 20:05:00,41.5,5.5,30.33,North,360,0.0,1.0,22,0.00,,---,0.00,VWS V14.01,2013-02-16 03:05:00,
2013-02-15 20:10:00,41.5,5.5,30.33,NNW,346,0.0,3.0,22,0.00,,---,0.00,VWS V14.01,2013-02-16 03:10:00,
2013-02-15 20:15:00,41.3,6.3,30.34,North,355,0.0,0.0,23,0.00,,---,0.00,VWS V14.01,2013-02-16 03:15:00,
2013-02-15 20:20:00,40.8,5.9,30.34,North,355,0.0,1.0,23,0.00,,---,0.00,VWS V14.01,2013-02-16 03:20:00,
2013-02-15 20:25:00,40.4,6.5,30.34,North,355,0.0,1.0,24,0.00,,---,0.00,VWS V14.01,2013-02-16 03:25:00,
2013-02-15 20:30:00,40.4,6.5,30.35,East,94,0.0,2.0,24,0.00,,---,0.00,VWS V14.01,2013-02-16 03:30:00,
2013-02-15 20:35:00,40.4,6.5,30.35,NE,53,0.0,1.0,24,0.00,,---,0.00,VWS V14.01,2013-02-16 03:35:00,
2013-02-15 20:40:00,40.5,5.6,30.35,NNW,338,3.0,4.0,23,0.00,,---,0.00,VWS V14.01,2013-02-16 03:40:00,
2013-02-15 20:45:00,40.9,6.0,30.35,North,355,3.0,3.0,23,0.00,,---,0.00,VWS V14.01,2013-02-16 03:45:00,
2013-02-15 20:50:00,41.0,6.1,30.36,NNE,22,0.0,1.0,23,0.00,,---,0.00,VWS V14.01,2013-02-16 03:50:00,
2013-02-15 20:55:00,40.7,5.8,30.36,NNE,16,1.0,4.0,23,0.00,,---,0.00,VWS V14.01,2013-02-16 03:55:00,
2013-02-15 21:00:00,40.7,5.8,30.36,East,88,0.0,2.0,23,0.00,,---,0.00,VWS V14.01,2013-02-16 04:00:00,
2013-02-15 21:05:00,40.7,5.8,30.37,North,351,0.0,3.0,23,0.00,,---,0.00,VWS V14.01,2013-02-16 04:05:00,
2013-02-15 21:10:00,40.5,5.6,30.37,North,355,0.0,1.0,23,0.00,,---,0.00,VWS V14.01,2013-02-16 04:10:00,
2013-02-15 21:15:00,40.0,6.1,30.38,NE,41,0.0,2.0,24,0.00,,---,0.00,VWS V14.01,2013-02-16 04:15:00,
2013-02-15 21:20:00,39.7,6.8,30.38,NNE,31,0.0,1.0,25,0.00,,---,0.00,VWS V14.01,2013-02-16 04:20:00,
2013-02-15 21:25:00,39.7,6.8,30.39,NNE,33,2.0,2.0,25,0.00,,---,0.00,VWS V14.01,2013-02-16 04:25:00,
2013-02-15 21:30:00,39.6,6.7,30.39,NNE,32,0.0,2.0,25,0.00,,---,0.00,VWS V14.01,2013-02-16 04:30:00,
2013-02-15 21:35:00,39.8,6.9,30.39,NNE,13,0.0,1.0,25,0.00,,---,0.00,VWS V14.01,2013-02-16 04:35:00,
2013-02-15 21:40:00,39.9,6.9,30.40,NE,53,1.0,2.0,25,0.00,,---,0.00,VWS V14.01,2013-02-16 04:40:00,
2013-02-15 21:45:00,39.9,6.9,30.40,ENE,77,3.0,4.0,25,0.00,,---,0.00,VWS V14.01,2013-02-16 04:45:00,
2013-02-15 21:50:00,40.2,8.1,30.40,NNW,346,2.0,6.0,26,0.00,,---,0.00,VWS V14.01,2013-02-16 04:50:00,
2013-02-15 21:55:00,40.5,8.3,30.41,North,355,3.0,8.0,26,0.00,,---,0.00,VWS V14.01,2013-02-16 04:55:00,
2013-02-15 22:00:00,40.5,7.5,30.41,North,360,2.0,3.0,25,0.00,,---,0.00,VWS V14.01,2013-02-16 05:00:00,
2013-02-15 22:05:00,40.2,8.1,30.41,North,5,3.0,3.0,26,0.00,,---,0.00,VWS V14.01,2013-02-16 05:05:00,
2013-02-15 22:10:00,40.1,8.0,30.40,NW,324,2.0,2.0,26,0.00,,---,0.00,VWS V14.01,2013-02-16 05:10:00,
2013-02-15 22:15:00,40.0,7.9,30.41,North,360,0.0,2.0,26,0.00,,---,0.00,VWS V14.01,2013-02-16 05:15:00,
2013-02-15 22:20:00,39.8,8.6,30.41,NNW,341,0.0,0.0,27,0.00,,---,0.00,VWS V14.01,2013-02-16 05:20:00,
2013-02-15 22:23:00,39.5,8.3,30.41,NNW,341,0.0,0.0,27,0.00,,---,0.00,VWS V14.01,2013-02-16 05:23:00,
2013-02-15 22:25:00,39.3,8.1,30.41,NNW,341,0.0,0.0,27,0.00,,---,0.00,VWS V14.01,2013-02-16 05:25:00,
2013-02-15 22:28:00,38.8,8.5,30.41,NNW,341,0.0,2.0,28,0.00,,---,0.00,VWS V14.01,2013-02-16 05:28:00,
2013-02-15 22:30:00,38.7,8.4,30.41,NE,55,3.0,4.0,28,0.00,,---,0.00,VWS V14.01,2013-02-16 05:30:00,
2013-02-15 22:33:00,38.7,8.4,30.41,NNW,343,3.0,4.0,28,0.00,,---,0.00,VWS V14.01,2013-02-16 05:33:00,
2013-02-15 22:35:00,38.8,8.5,30.41,NNE,19,1.0,6.0,28,0.00,,---,0.00,VWS V14.01,2013-02-16 05:35:00,
2013-02-15 22:38:00,39.1,8.8,30.41,NNW,348,3.0,4.0,28,0.00,,---,0.00,VWS V14.01,2013-02-16 05:38:00,
2013-02-15 22:40:00,39.1,8.8,30.41,North,349,0.0,4.0,28,0.00,,---,0.00,VWS V14.01,2013-02-16 05:40:00,
2013-02-15 22:43:00,39.1,8.8,30.41,North,350,1.0,5.0,28,0.00,,---,0.00,VWS V14.01,2013-02-16 05:43:00,
2013-02-15 22:45:00,39.0,8.7,30.41,NNW,333,2.0,5.0,28,0.00,,---,0.00,VWS V14.01,2013-02-16 05:45:00,
2013-02-15 22:48:00,38.8,8.5,30.41,NW,322,2.0,6.0,28,0.00,,---,0.00,VWS V14.01,2013-02-16 05:48:00,
2013-02-15 22:50:00,38.8,8.5,30.41,NNW,334,3.0,6.0,28,0.00,,---,0.00,VWS V14.01,2013-02-16 05:50:00,
2013-02-15 22:53:00,38.6,9.1,30.41,NNW,344,2.0,5.0,29,0.00,,---,0.00,VWS V14.01,2013-02-16 05:53:00,
2013-02-15 22:55:00,38.6,9.1,30.41,NNW,338,2.0,5.0,29,0.00,,---,0.00,VWS V14.01,2013-02-16 05:55:00,
2013-02-15 22:58:00,38.4,8.9,30.41,NNW,339,2.0,5.0,29,0.00,,---,0.00,VWS V14.01,2013-02-16 05:58:00,
2013-02-15 23:00:00,38.4,8.9,30.41,NNW,340,2.0,6.0,29,0.00,,---,0.00,VWS V14.01,2013-02-16 06:00:00,
2013-02-15 23:03:00,38.3,8.8,30.41,NNW,330,2.0,4.0,29,0.00,,---,0.00,VWS V14.01,2013-02-16 06:03:00,
2013-02-15 23:05:00,38.3,8.8,30.41,NNW,338,3.0,4.0,29,0.00,,---,0.00,VWS V14.01,2013-02-16 06:05:00,
2013-02-15 23:08:00,38.4,8.9,30.42,NW,319,0.0,5.0,29,0.00,,---,0.00,VWS V14.01,2013-02-16 06:08:00,
2013-02-15 23:10:00,38.4,8.9,30.42,NW,319,1.0,5.0,29,0.00,,---,0.00,VWS V14.01,2013-02-16 06:10:00,
2013-02-15 23:13:00,38.1,8.7,30.42,NNW,348,1.0,2.0,29,0.00,,---,0.00,VWS V14.01,2013-02-16 06:13:00,
2013-02-15 23:15:00,38.0,9.3,30.42,North,351,0.0,2.0,30,0.00,,---,0.00,VWS V14.01,2013-02-16 06:15:00,
2013-02-15 23:18:00,37.5,8.9,30.41,North,351,0.0,0.0,30,0.00,,---,0.00,VWS V14.01,2013-02-16 06:18:00,
2013-02-15 23:20:00,37.3,8.7,30.41,North,351,0.0,0.0,30,0.00,,---,0.00,VWS V14.01,2013-02-16 06:20:00,
2013-02-15 23:23:00,36.8,9.0,30.42,North,351,0.0,0.0,31,0.00,,---,0.00,VWS V14.01,2013-02-16 06:23:00,
2013-02-15 23:25:00,36.6,8.8,30.42,North,351,0.0,0.0,31,0.00,,---,0.00,VWS V14.01,2013-02-16 06:25:00,
2013-02-15 23:28:00,36.2,9.2,30.42,North,351,0.0,0.0,32,0.00,,---,0.00,VWS V14.01,2013-02-16 06:28:00,
2013-02-15 23:30:00,36.1,9.1,30.42,North,351,0.0,1.0,32,0.00,,---,0.00,VWS V14.01,2013-02-16 06:30:00,
2013-02-15 23:33:00,36.0,9.0,30.42,North,351,0.0,2.0,32,0.00,,---,0.00,VWS V14.01,2013-02-16 06:33:00,
2013-02-15 23:35:00,36.0,9.0,30.42,North,351,0.0,2.0,32,0.00,,---,0.00,VWS V14.01,2013-02-16 06:35:00,
2013-02-15 23:38:00,36.0,9.0,30.42,North,351,0.0,1.0,32,0.00,,---,0.00,VWS V14.01,2013-02-16 06:38:00,
2013-02-15 23:40:00,35.7,8.8,30.42,North,351,0.0,1.0,32,0.00,,---,0.00,VWS V14.01,2013-02-16 06:40:00,
2013-02-15 23:43:00,35.3,9.1,30.42,North,351,0.0,0.0,33,0.00,,---,0.00,VWS V14.01,2013-02-16 06:43:00,
2013-02-15 23:45:00,35.3,9.1,30.42,North,351,0.0,0.0,33,0.00,,---,0.00,VWS V14.01,2013-02-16 06:45:00,
2013-02-15 23:48:00,35.2,9.0,30.42,North,351,0.0,0.0,33,0.00,,---,0.00,VWS V14.01,2013-02-16 06:48:00,
2013-02-15 23:50:00,35.1,8.9,30.42,North,351,0.0,0.0,33,0.00,,---,0.00,VWS V14.01,2013-02-16 06:50:00,
2013-02-15 23:52:00,34.9,9.4,30.42,North,351,0.0,0.0,34,0.00,,---,0.00,VWS V14.01,2013-02-16 06:52:00,
2013-02-15 23:55:00,34.8,9.3,30.42,North,351,0.0,0.0,34,0.00,,---,0.00,VWS V14.01,2013-02-16 06:55:00,
2013-02-15 23:57:00,34.3,8.9,30.42,North,351,0.0,0.0,34,0.00,,---,0.00,VWS V14.01,2013-02-16 06:57:00,